EZY64P LIMC-LGSK

Flight info

Callsign EZY64P
Flight time 1h 52m
Altitude 35000
Route VAKON DCT IBUPU DCT NIKOL DCT TAZ DCT MAVAR DCT TALAS UN130 TSL
Aircraft A21N/M-SDE2E3FGHIRWXY/LB1

Departure

Time 2026-05-04 15:39
Airport Milan Malpensa International Airport (LIMC)

Arrival

Time 2026-05-04 17:31
Airport Skiathos Island National Airport (LGSK)
Time Latitude Longitude Altitude Speed Heading
2026-05-04 15:20 45.64612 8.72511 764 ft 0 kts 262°
2026-05-04 15:30 45.64614 8.72534 764 ft 4 kts 267°
2026-05-04 15:31 45.64605 8.72607 764 ft 5 kts 306°
2026-05-04 15:31 45.64588 8.72625 764 ft 3 kts 349°
2026-05-04 15:36 45.64630 8.72614 764 ft 6 kts 349°
2026-05-04 15:36 45.64675 8.72602 764 ft 7 kts 349°
2026-05-04 15:36 45.64730 8.72586 764 ft 9 kts 349°
2026-05-04 15:37 45.64795 8.72576 764 ft 10 kts
2026-05-04 15:37 45.64859 8.72630 764 ft 12 kts 38°
2026-05-04 15:37 45.64925 8.72707 764 ft 13 kts 41°
2026-05-04 15:37 45.64921 8.72820 764 ft 14 kts 155°
2026-05-04 15:38 45.64818 8.72851 764 ft 16 kts 169°
2026-05-04 15:38 45.64623 8.72906 764 ft 57 kts 169°
2026-05-04 15:38 45.64020 8.73072 765 ft 117 kts 169°
2026-05-04 15:38 45.63058 8.73339 762 ft 162 kts 169°
2026-05-04 15:39 45.61869 8.73672 1040 ft 175 kts 170°
2026-05-04 15:39 45.60685 8.73902 1608 ft 174 kts 181°
2026-05-04 15:39 45.58262 8.72856 2669 ft 198 kts 192°
2026-05-04 15:40 45.56854 8.72489 3351 ft 214 kts 190°
2026-05-04 15:40 45.55323 8.72062 3898 ft 234 kts 192°
2026-05-04 15:40 45.53697 8.71580 4657 ft 241 kts 192°
2026-05-04 15:40 45.52032 8.71243 5383 ft 244 kts 176°
2026-05-04 15:41 45.50392 8.71880 6148 ft 247 kts 151°
2026-05-04 15:41 45.49105 8.73511 6953 ft 251 kts 125°
2026-05-04 15:41 45.48467 8.75739 7708 ft 256 kts 99°
2026-05-04 15:41 45.48614 8.78311 8496 ft 263 kts 72°
2026-05-04 15:42 45.49512 8.80553 9268 ft 267 kts 53°
2026-05-04 15:42 45.50716 8.82606 10044 ft 272 kts 51°
2026-05-04 15:42 45.51949 8.84675 10787 ft 277 kts 52°
2026-05-04 15:42 45.53187 8.86820 10604 ft 279 kts 53°
2026-05-04 15:43 45.54400 8.88974 10822 ft 279 kts 54°
2026-05-04 15:43 45.55620 8.91149 11528 ft 283 kts 53°
2026-05-04 15:43 45.56862 8.93252 12252 ft 287 kts 47°
2026-05-04 15:43 45.58416 8.95181 12724 ft 306 kts 40°
2026-05-04 15:44 45.60137 8.97141 13046 ft 326 kts 41°
2026-05-04 15:44 45.61762 8.99520 13339 ft 344 kts 55°
2026-05-04 15:44 45.62950 9.02561 13623 ft 359 kts 72°
2026-05-04 15:44 45.63510 9.06093 13888 ft 372 kts 89°
2026-05-04 15:45 45.63336 9.09801 14135 ft 384 kts 104°
2026-05-04 15:45 45.62676 9.13564 14377 ft 398 kts 108°
2026-05-04 15:45 45.61934 9.17449 14654 ft 409 kts 108°
2026-05-04 15:45 45.61195 9.21405 15103 ft 414 kts 107°
2026-05-04 15:46 45.60470 9.25381 15579 ft 418 kts 107°
2026-05-04 15:46 45.59744 9.29422 16054 ft 421 kts 107°
2026-05-04 15:46 45.59014 9.33502 16531 ft 424 kts 107°
2026-05-04 15:46 45.58279 9.37598 16964 ft 428 kts 107°
2026-05-04 15:47 45.57534 9.41723 17412 ft 431 kts 107°
2026-05-04 15:47 45.56784 9.45869 17867 ft 434 kts 107°
2026-05-04 15:47 45.56033 9.50054 18306 ft 437 kts 106°
2026-05-04 15:47 45.55330 9.54300 18722 ft 440 kts 105°
2026-05-04 15:48 45.54445 9.58477 19127 ft 441 kts 115°
2026-05-04 15:48 45.53196 9.62473 19561 ft 442 kts 117°
2026-05-04 15:48 45.50590 9.70496 20397 ft 448 kts 116°
2026-05-04 15:49 45.49296 9.74552 20804 ft 451 kts 116°
2026-05-04 15:49 45.48016 9.78632 21221 ft 453 kts 116°
2026-05-04 15:49 45.46730 9.82754 21639 ft 456 kts 116°
2026-05-04 15:49 45.45451 9.86850 22046 ft 459 kts 116°
2026-05-04 15:50 45.44148 9.91013 22473 ft 462 kts 116°
2026-05-04 15:50 45.42834 9.95193 22886 ft 465 kts 116°
2026-05-04 15:50 45.41502 9.99411 23287 ft 468 kts 116°
2026-05-04 15:50 45.40162 10.03647 23681 ft 471 kts 116°
2026-05-04 15:51 45.38809 10.07905 24059 ft 474 kts 116°
2026-05-04 15:51 45.37447 10.12195 24437 ft 477 kts 116°
2026-05-04 15:51 45.36076 10.16505 24804 ft 479 kts 116°
2026-05-04 15:51 45.34695 10.20810 25198 ft 480 kts 116°
2026-05-04 15:52 45.33303 10.25121 25677 ft 479 kts 116°
2026-05-04 15:52 45.31926 10.29410 26133 ft 478 kts 116°
2026-05-04 15:52 45.30560 10.33718 26603 ft 477 kts 116°
2026-05-04 15:52 45.29198 10.38009 27057 ft 476 kts 116°
2026-05-04 15:53 45.27827 10.42298 27471 ft 475 kts 116°
2026-05-04 15:53 45.26459 10.46555 27896 ft 474 kts 116°
2026-05-04 15:53 45.25088 10.50811 28298 ft 473 kts 116°
2026-05-04 15:53 45.23714 10.55067 28715 ft 473 kts 116°
2026-05-04 15:54 45.22342 10.59310 29111 ft 472 kts 117°
2026-05-04 15:54 45.20970 10.63542 29492 ft 472 kts 117°
2026-05-04 15:54 45.19615 10.67716 29866 ft 471 kts 117°
2026-05-04 15:54 45.18243 10.71939 30254 ft 470 kts 117°
2026-05-04 15:55 45.16907 10.76155 30636 ft 469 kts 116°
2026-05-04 15:55 45.15603 10.80395 30996 ft 470 kts 116°
2026-05-04 15:55 45.14301 10.84648 31354 ft 469 kts 115°
2026-05-04 15:55 45.13005 10.88872 31685 ft 469 kts 115°
2026-05-04 15:56 45.11701 10.93107 32013 ft 468 kts 116°
2026-05-04 15:56 45.10397 10.97331 32329 ft 468 kts 116°
2026-05-04 15:56 45.09092 11.01559 32622 ft 468 kts 116°
2026-05-04 15:56 45.07785 11.05787 32933 ft 467 kts 116°
2026-05-04 15:57 45.06486 11.09985 33233 ft 466 kts 116°
2026-05-04 15:57 45.05196 11.14139 33471 ft 467 kts 116°
2026-05-04 15:57 45.03875 11.18391 33738 ft 466 kts 116°
2026-05-04 15:57 45.02588 11.22532 33992 ft 466 kts 116°
2026-05-04 15:58 45.01261 11.26783 34226 ft 466 kts 116°
2026-05-04 15:58 44.99971 11.30911 34434 ft 466 kts 116°
2026-05-04 15:58 44.98659 11.35106 34627 ft 467 kts 116°
2026-05-04 15:58 44.97346 11.39293 34812 ft 467 kts 116°
2026-05-04 15:59 44.96029 11.43486 35024 ft 467 kts 116°
2026-05-04 15:59 44.94707 11.47692 35106 ft 469 kts 116°
2026-05-04 15:59 44.92060 11.56092 35077 ft 468 kts 116°
2026-05-04 16:00 44.89836 11.63123 35070 ft 469 kts 116°
2026-05-04 16:00 44.87178 11.71524 35066 ft 468 kts 116°
2026-05-04 16:01 44.84533 11.79841 35060 ft 469 kts 116°
2026-05-04 16:01 44.81854 11.88219 35058 ft 469 kts 116°
2026-05-04 16:02 44.79170 11.96604 35066 ft 469 kts 116°
2026-05-04 16:03 44.75135 12.09146 35070 ft 469 kts 116°
2026-05-04 16:03 44.72437 12.17504 35083 ft 469 kts 116°
2026-05-04 16:04 44.69748 12.25813 35080 ft 469 kts 116°
2026-05-04 16:04 44.65684 12.38326 35081 ft 469 kts 116°
2026-05-04 16:05 44.62962 12.46660 35075 ft 469 kts 116°
2026-05-04 16:06 44.58876 12.59152 35080 ft 469 kts 116°
2026-05-04 16:07 44.53406 12.75749 35073 ft 469 kts 116°
2026-05-04 16:08 44.47942 12.92242 35085 ft 468 kts 116°
2026-05-04 16:09 44.41059 13.12863 35095 ft 468 kts 116°
2026-05-04 16:10 44.35526 13.29329 35086 ft 467 kts 116°
2026-05-04 16:11 44.29975 13.45740 35097 ft 466 kts 116°
2026-05-04 16:12 44.21650 13.70174 35109 ft 466 kts 116°
2026-05-04 16:13 44.15976 13.86520 35105 ft 475 kts 116°
2026-05-04 16:14 44.10163 14.03136 35097 ft 477 kts 116°
2026-05-04 16:16 44.02894 14.23805 35099 ft 477 kts 116°
2026-05-04 16:17 43.95572 14.44517 35106 ft 479 kts 116°
2026-05-04 16:18 43.89687 14.61066 35106 ft 480 kts 116°
2026-05-04 16:19 43.82225 14.81863 35111 ft 483 kts 116°
2026-05-04 16:20 43.74707 15.02658 35111 ft 485 kts 116°
2026-05-04 16:22 43.67107 15.23523 35110 ft 486 kts 116°
2026-05-04 16:23 43.57923 15.48458 35113 ft 487 kts 116°
2026-05-04 16:25 43.48697 15.73409 35107 ft 487 kts 116°
2026-05-04 16:26 43.37849 16.02421 35110 ft 487 kts 116°
2026-05-04 16:28 43.30103 16.22939 35107 ft 488 kts 116°
2026-05-04 16:29 43.19098 16.51847 35108 ft 489 kts 116°
2026-05-04 16:31 43.11197 16.72410 35107 ft 490 kts 116°
2026-05-04 16:32 43.01636 16.97106 35112 ft 490 kts 116°
2026-05-04 16:33 42.95213 17.13572 35101 ft 491 kts 116°
2026-05-04 16:34 42.90399 17.25857 35100 ft 492 kts 116°
2026-05-04 16:35 42.80662 17.50542 35110 ft 493 kts 116°
2026-05-04 16:36 42.75773 17.62846 35111 ft 494 kts 116°
2026-05-04 16:37 42.70839 17.75217 35118 ft 495 kts 116°
2026-05-04 16:38 42.64238 17.91696 35123 ft 497 kts 116°
2026-05-04 16:39 42.55944 18.12257 35137 ft 497 kts 116°
2026-05-04 16:40 42.49226 18.28709 35140 ft 498 kts 116°
2026-05-04 16:41 42.40874 18.49194 35127 ft 497 kts 116°
2026-05-04 16:43 42.32501 18.69609 35113 ft 496 kts 116°
2026-05-04 16:43 42.27529 18.81847 35115 ft 493 kts 112°
2026-05-04 16:45 42.18888 19.06998 35103 ft 491 kts 111°
2026-05-04 16:46 42.11686 19.27732 35098 ft 489 kts 111°
2026-05-04 16:47 42.06367 19.42936 35097 ft 488 kts 111°
2026-05-04 16:48 42.00565 19.59431 35100 ft 487 kts 111°
2026-05-04 16:49 41.94747 19.75866 35108 ft 487 kts 111°
2026-05-04 16:50 41.88896 19.92287 35118 ft 487 kts 111°
2026-05-04 16:51 41.84518 20.04541 35120 ft 487 kts 111°
2026-05-04 16:52 41.78626 20.20910 35125 ft 487 kts 111°
2026-05-04 16:53 41.74198 20.33178 35125 ft 488 kts 112°
2026-05-04 16:54 41.68269 20.49494 35132 ft 487 kts 112°
2026-05-04 16:55 41.58488 20.73269 35127 ft 487 kts 116°
2026-05-04 16:56 41.50190 20.92911 35132 ft 485 kts 116°
2026-05-04 16:57 41.45223 21.04599 35134 ft 484 kts 117°
2026-05-04 16:58 41.38590 21.20165 35130 ft 482 kts 117°
2026-05-04 17:00 41.28641 21.43354 35120 ft 480 kts 117°
2026-05-04 17:01 41.20313 21.62537 35118 ft 479 kts 117°
2026-05-04 17:02 41.13703 21.77822 35112 ft 480 kts 117°
2026-05-04 17:03 41.08696 21.89302 35109 ft 479 kts 118°
2026-05-04 17:03 41.02866 22.00136 35105 ft 483 kts 125°
2026-05-04 17:04 40.94809 22.14240 35111 ft 478 kts 125°
2026-05-04 17:05 40.86805 22.28230 35111 ft 479 kts 125°
2026-05-04 17:06 40.80752 22.38737 35105 ft 479 kts 125°
2026-05-04 17:07 40.75369 22.48056 35099 ft 479 kts 125°
2026-05-04 17:07 40.70647 22.56223 35099 ft 479 kts 125°
2026-05-04 17:08 40.64587 22.66699 35090 ft 479 kts 126°
2026-05-04 17:09 40.60539 22.73661 35084 ft 479 kts 126°
2026-05-04 17:09 40.56488 22.80605 35080 ft 476 kts 126°
2026-05-04 17:10 40.52556 22.87347 34862 ft 461 kts 126°
2026-05-04 17:10 40.46481 22.97199 33098 ft 465 kts 136°
2026-05-04 17:11 40.43893 22.99756 32367 ft 468 kts 148°
2026-05-04 17:11 40.40939 23.01577 31634 ft 469 kts 157°
2026-05-04 17:11 40.34842 23.04535 30135 ft 464 kts 157°
2026-05-04 17:12 40.31821 23.06010 29301 ft 461 kts 156°
2026-05-04 17:12 40.25848 23.08966 27625 ft 459 kts 157°
2026-05-04 17:13 40.16842 23.13439 25028 ft 463 kts 158°
2026-05-04 17:14 40.07860 23.17868 22749 ft 459 kts 158°
2026-05-04 17:14 40.04879 23.19336 22092 ft 456 kts 158°
2026-05-04 17:14 39.98980 23.22243 20727 ft 451 kts 158°
2026-05-04 17:15 39.96037 23.23691 19993 ft 450 kts 158°
2026-05-04 17:15 39.90207 23.26549 18582 ft 446 kts 158°
2026-05-04 17:16 39.84423 23.29389 17222 ft 442 kts 158°
2026-05-04 17:16 39.75936 23.33535 15423 ft 431 kts 158°
2026-05-04 17:17 39.73129 23.34906 14802 ft 428 kts 158°
2026-05-04 17:17 39.64834 23.38952 12968 ft 422 kts 158°
2026-05-04 17:18 39.62084 23.40285 12324 ft 420 kts 158°
2026-05-04 17:18 39.56744 23.42879 11506 ft 394 kts 158°
2026-05-04 17:19 39.51805 23.45279 11053 ft 364 kts 158°
2026-05-04 17:19 39.47260 23.47478 10695 ft 338 kts 158°
2026-05-04 17:20 39.43017 23.49532 10322 ft 313 kts 158°
2026-05-04 17:20 39.38967 23.51494 9338 ft 310 kts 158°
2026-05-04 17:20 39.36956 23.52467 8871 ft 307 kts 159°
2026-05-04 17:21 39.33021 23.54367 8136 ft 298 kts 159°
2026-05-04 17:21 39.29185 23.56222 7528 ft 295 kts 159°
2026-05-04 17:22 39.27308 23.57125 7210 ft 295 kts 159°
2026-05-04 17:22 39.25327 23.58081 6870 ft 296 kts 159°
2026-05-04 17:23 39.19598 23.60811 5873 ft 289 kts 164°
2026-05-04 17:23 39.17640 23.61139 5543 ft 287 kts 187°
2026-05-04 17:23 39.14106 23.59223 4946 ft 274 kts 212°
2026-05-04 17:24 39.12457 23.58063 4749 ft 265 kts 211°
2026-05-04 17:24 39.07816 23.54941 4033 ft 241 kts 210°
2026-05-04 17:25 39.06336 23.53964 3744 ft 238 kts 210°
2026-05-04 17:25 39.03417 23.52047 3128 ft 234 kts 210°
2026-05-04 17:26 39.01113 23.49429 2585 ft 218 kts 248°
2026-05-04 17:26 39.01919 23.44348 1743 ft 208 kts 317°
2026-05-04 17:27 39.04525 23.43109 1593 ft 207 kts
2026-05-04 17:27 39.06946 23.44493 1694 ft 172 kts 43°
2026-05-04 17:28 39.08363 23.46557 1583 ft 140 kts 53°
2026-05-04 17:29 39.10866 23.48144 1313 ft 141 kts
2026-05-04 17:29 39.13691 23.48581 793 ft 135 kts 21°
2026-05-04 17:30 39.16348 23.49765 191 ft 135 kts 18°
2026-05-04 17:31 39.17892 23.50447 73 ft 57 kts 19°
2026-05-04 17:31 39.18327 23.50641 90 ft 13 kts 19°
2026-05-04 17:32 39.18394 23.50677 83 ft 3 kts 189°
2026-05-04 17:33 39.18263 23.50612 79 ft 9 kts 199°
2026-05-04 17:33 39.18200 23.50584 73 ft 10 kts 199°
2026-05-04 17:34 39.17966 23.50464 68 ft 14 kts 235°
2026-05-04 17:34 39.17945 23.50381 74 ft 15 kts 255°
2026-05-04 17:35 39.17715 23.50240 58 ft 4 kts 232°
2026-05-04 17:35 39.17717 23.50221 63 ft 1 kts 303°
2026-05-04 17:35 39.17729 23.50219 63 ft 3 kts
2026-05-04 17:36 39.17758 23.50224 63 ft 6 kts 357°
2026-05-04 17:36 39.17805 23.50194 65 ft 8 kts 331°
2026-05-04 17:36 39.17817 23.50185 66 ft 0 kts 331°